Location: Berkeley
(37.8716°N, 122.2727°W)
Time: 19:35:27
(UTC-08:00)

CAS-4A - Visible Passes

Search period start: 19 November 2019 00:00
Search period end: 29 November 2019 00:00
Orbit: 529 x 544 km, 43.0° (Epoch: 19 November)

Date Brightness Start Highest point End Pass type
(mag) Time Alt. Az. Time Alt. Az. Time Alt. Az.
19 Nov ? 05:58:13 10° SW 06:02:03 40° SSE 06:05:54 10° ENE visible
20 Nov ? 05:47:48 10° SW 05:51:47 51° SSE 05:55:46 10° ENE visible
21 Nov ? 04:02:42 12° SE 04:02:42 12° SE 04:03:47 10° ESE visible
21 Nov ? 05:38:07 14° SW 05:41:31 64° SSE 05:45:35 10° ENE visible
22 Nov ? 03:53:43 12° ESE 03:53:43 12° ESE 03:54:14 10° E visible
22 Nov ? 05:29:07 27° WSW 05:31:17 79° SSE 05:35:23 10° ENE visible
23 Nov ? 05:19:55 46° WSW 05:21:03 86° NNW 05:25:11 10° ENE visible
24 Nov ? 05:10:35 69° NW 05:10:51 72° NNW 05:14:57 10° ENE visible
25 Nov ? 05:01:07 57° NNE 05:01:07 57° NNE 05:04:44 10° ENE visible
26 Nov ? 04:51:34 40° NE 04:51:34 40° NE 04:54:31 10° ENE visible
26 Nov ? 06:27:12 10° WNW 06:31:05 39° N 06:34:57 10° ENE visible
27 Nov ? 04:41:58 30° NE 04:41:58 30° NE 04:44:18 10° ENE visible
27 Nov ? 06:17:19 12° WNW 06:20:57 41° N 06:24:50 10° ENE visible
28 Nov ? 04:32:18 23° NE 04:32:18 23° NE 04:34:06 10° ENE visible
28 Nov ? 06:07:40 15° WNW 06:10:47 43° N 06:14:43 10° E visible
